Hourly Weather Rutkowo

Today, 22 April, Thursday

Time Temperature Precipitation Wind Pressure Humidity
00:00 +5°C° 0.1 mm 3 mps 744 mmHg 87%
01:00 +5°C° 0 mm 3 mps 744 mmHg 90%
02:00 +4°C° 0.2 mm 3 mps 744 mmHg 90%
03:00 +4°C° 0.2 mm 3 mps 744 mmHg 90%
04:00 +3°C° 0.2 mm 3 mps 745 mmHg 91%
05:00 +4°C° 0.1 mm 3 mps 745 mmHg 86%
06:00 +4°C° 0.1 mm 4 mps 745 mmHg 81%
07:00 +3°C° 0 mm 5 mps 745 mmHg 76%
08:00 +4°C° 0 mm 6 mps 745 mmHg 71%
09:00 +5°C° 0 mm 6 mps 745 mmHg 65%
10:00 +5°C° 0 mm 7 mps 746 mmHg 60%
11:00 +6°C° 0.2 mm 7 mps 746 mmHg 58%
12:00 +6°C° 0.2 mm 7 mps 746 mmHg 56%
13:00 +6°C° 0.2 mm 8 mps 746 mmHg 54%
14:00 +6°C° 0.3 mm 7 mps 746 mmHg 55%
15:00 +6°C° 0.3 mm 7 mps 746 mmHg 56%
16:00 +6°C° 0.3 mm 7 mps 746 mmHg 58%
17:00 +4°C° 0 mm 6 mps 746 mmHg 61%
18:00 +3°C° 0 mm 5 mps 746 mmHg 65%
19:00 +2°C° 0 mm 5 mps 746 mmHg 68%
20:00 +1°C° 0 mm 5 mps 747 mmHg 70%
21:00 +1°C° 0 mm 5 mps 747 mmHg 72%
22:00 +1°C° 0 mm 4 mps 747 mmHg 75%
23:00 0°C° 0 mm 5 mps 747 mmHg 75%

Tomorrow, 23 April, Friday

Time Temperature Precipitation Wind Pressure Humidity
00:00 0°C° 0 mm 5 mps 747 mmHg 75%
01:00 0°C° 0 mm 5 mps 747 mmHg 75%
02:00 0°C° 0 mm 5 mps 747 mmHg 78%
03:00 0°C° 0 mm 5 mps 748 mmHg 80%
04:00 0°C° 0 mm 5 mps 748 mmHg 83%
05:00 0°C° 0 mm 5 mps 748 mmHg 77%
06:00 +1°C° 0 mm 6 mps 748 mmHg 72%
07:00 +2°C° 0 mm 6 mps 749 mmHg 66%
08:00 +3°C° 0.1 mm 6 mps 749 mmHg 59%
09:00 +4°C° 0.1 mm 7 mps 749 mmHg 53%
10:00 +5°C° 0.1 mm 7 mps 749 mmHg 46%
11:00 +5°C° 0.1 mm 7 mps 749 mmHg 46%
12:00 +5°C° 0.1 mm 7 mps 750 mmHg 46%
13:00 +5°C° 0.1 mm 7 mps 750 mmHg 46%
14:00 +5°C° 0.1 mm 7 mps 750 mmHg 47%
15:00 +5°C° 0.1 mm 7 mps 750 mmHg 48%
16:00 +4°C° 0.1 mm 6 mps 750 mmHg 49%
17:00 +3°C° 0 mm 6 mps 751 mmHg 51%
18:00 +2°C° 0 mm 5 mps 751 mmHg 53%
19:00 +1°C° 0 mm 4 mps 751 mmHg 55%
20:00 0°C° 0 mm 4 mps 751 mmHg 61%
21:00 0°C° 0 mm 3 mps 752 mmHg 66%
22:00 -1°C° 0 mm 3 mps 752 mmHg 71%
23:00 -1°C° 0 mm 3 mps 752 mmHg 73%

Day after tomorrow, 24 April, Saturday

Time Temperature Precipitation Wind Pressure Humidity
00:00 -2°C° 0 mm 3 mps 752 mmHg 75%
01:00 -2°C° 0 mm 2 mps 752 mmHg 77%
02:00 -2°C° 0 mm 2 mps 752 mmHg 77%
03:00 -2°C° 0 mm 2 mps 752 mmHg 76%
04:00 -2°C° 0 mm 2 mps 752 mmHg 75%
05:00 -1°C° 0 mm 3 mps 752 mmHg 67%
06:00 0°C° 0 mm 4 mps 752 mmHg 60%
07:00 +3°C° 0 mm 4 mps 752 mmHg 52%
08:00 +3°C° 0 mm 5 mps 752 mmHg 46%
09:00 +6°C° 0 mm 5 mps 752 mmHg 40%
10:00 +7°C° 0 mm 6 mps 752 mmHg 34%
11:00 +7°C° 0 mm 6 mps 752 mmHg 36%
12:00 +7°C° 0 mm 6 mps 752 mmHg 37%
13:00 +7°C° 0 mm 6 mps 751 mmHg 39%
14:00 +7°C° 0.2 mm 6 mps 751 mmHg 44%
15:00 +6°C° 0.2 mm 5 mps 751 mmHg 50%
16:00 +5°C° 0.2 mm 5 mps 751 mmHg 55%
17:00 +4°C° 0 mm 4 mps 752 mmHg 57%
18:00 +1°C° 0 mm 4 mps 752 mmHg 59%
19:00 0°C° 0 mm 3 mps 752 mmHg 60%
20:00 -1°C° 0 mm 3 mps 752 mmHg 65%
21:00 -2°C° 0 mm 2 mps 752 mmHg 70%
22:00 -3°C° 0 mm 2 mps 752 mmHg 74%
23:00 -3°C° 0 mm 2 mps 752 mmHg 75%

25 April, Sunday

Time Temperature Precipitation Wind Pressure Humidity
00:00 -3°C° 0 mm 2 mps 752 mmHg 76%
01:00 -3°C° 0 mm 2 mps 752 mmHg 76%
02:00 -3°C° 0 mm 2 mps 752 mmHg 75%
03:00 -3°C° 0 mm 2 mps 752 mmHg 73%
04:00 -3°C° 0 mm 2 mps 752 mmHg 72%
05:00 -1°C° 0 mm 3 mps 751 mmHg 65%
06:00 +1°C° 0 mm 3 mps 751 mmHg 59%
07:00 +2°C° 0 mm 3 mps 751 mmHg 53%
08:00 +3°C° 0.1 mm 4 mps 751 mmHg 49%
09:00 +5°C° 0.1 mm 5 mps 751 mmHg 44%
10:00 +6°C° 0.1 mm 5 mps 750 mmHg 40%
11:00 +6°C° 0.1 mm 5 mps 750 mmHg 43%
12:00 +5°C° 0.1 mm 6 mps 750 mmHg 46%
13:00 +5°C° 0.1 mm 6 mps 750 mmHg 49%
14:00 +4°C° 0.2 mm 6 mps 750 mmHg 49%
15:00 +4°C° 0.2 mm 6 mps 750 mmHg 50%
16:00 +4°C° 0.2 mm 6 mps 750 mmHg 51%
17:00 +2°C° 0 mm 5 mps 751 mmHg 56%
18:00 0°C° 0 mm 4 mps 751 mmHg 61%
19:00 0°C° 0 mm 3 mps 751 mmHg 66%
20:00 -1°C° 0 mm 3 mps 751 mmHg 70%
21:00 -1°C° 0 mm 2 mps 751 mmHg 74%
22:00 -2°C° 0 mm 2 mps 751 mmHg 79%
23:00 -2°C° 0 mm 2 mps 751 mmHg 79%

26 April, Monday

Time Temperature Precipitation Wind Pressure Humidity
00:00 -2°C° 0 mm 2 mps 751 mmHg 79%
01:00 -3°C° 0 mm 2 mps 750 mmHg 79%
02:00 -4°C° 0 mm 3 mps 750 mmHg 78%
03:00 -4°C° 0 mm 3 mps 750 mmHg 77%
04:00 -4°C° 0 mm 3 mps 750 mmHg 77%
05:00 -2°C° 0 mm 3 mps 749 mmHg 70%
06:00 -1°C° 0 mm 4 mps 749 mmHg 64%
07:00 +1°C° 0 mm 5 mps 749 mmHg 58%
08:00 +3°C° 0 mm 5 mps 749 mmHg 51%
09:00 +5°C° 0 mm 5 mps 749 mmHg 44%
10:00 +7°C° 0 mm 5 mps 748 mmHg 37%
11:00 +7°C° 0 mm 5 mps 748 mmHg 38%
12:00 +7°C° 0 mm 6 mps 748 mmHg 39%
13:00 +8°C° 0 mm 6 mps 748 mmHg 40%
14:00 +8°C° 0 mm 6 mps 748 mmHg 43%
15:00 +7°C° 0 mm 6 mps 748 mmHg 47%
16:00 +7°C° 0 mm 5 mps 747 mmHg 50%
17:00 +5°C° 0 mm 5 mps 748 mmHg 57%
18:00 +3°C° 0 mm 4 mps 748 mmHg 64%
19:00 +2°C° 0 mm 3 mps 748 mmHg 72%
20:00 +1°C° 0 mm 3 mps 748 mmHg 78%
21:00 +1°C° 0 mm 2 mps 748 mmHg 84%
22:00 -1°C° 0 mm 2 mps 748 mmHg 90%
23:00 -1°C° 0 mm 2 mps 748 mmHg 91%

27 April, Tuesday

Time Temperature Precipitation Wind Pressure Humidity
00:00 -1°C° 0 mm 2 mps 748 mmHg 91%
01:00 -1°C° 0 mm 2 mps 748 mmHg 92%
02:00 -1°C° 0 mm 2 mps 748 mmHg 91%
03:00 -1°C° 0 mm 2 mps 748 mmHg 91%
04:00 -1°C° 0 mm 2 mps 748 mmHg 90%
05:00 +1°C° 0 mm 2 mps 748 mmHg 86%
06:00 +2°C° 0 mm 2 mps 748 mmHg 82%
07:00 +3°C° 0 mm 2 mps 748 mmHg 78%
08:00 +4°C° 0 mm 2 mps 748 mmHg 75%
09:00 +5°C° 0 mm 2 mps 748 mmHg 71%
10:00 +6°C° 0 mm 2 mps 748 mmHg 68%
11:00 +7°C° 0 mm 1 mps 748 mmHg 66%
12:00 +8°C° 0 mm 1 mps 747 mmHg 64%
13:00 +8°C° 0 mm 1 mps 747 mmHg 61%
14:00 +8°C° 0 mm 1 mps 747 mmHg 61%
15:00 +8°C° 0 mm 1 mps 747 mmHg 60%
16:00 +7°C° 0 mm 2 mps 747 mmHg 60%
17:00 +7°C° 0 mm 2 mps 747 mmHg 62%
18:00 +6°C° 0 mm 2 mps 746 mmHg 65%
19:00 +5°C° 0 mm 2 mps 746 mmHg 67%
20:00 +4°C° 0 mm 2 mps 746 mmHg 71%
21:00 +4°C° 0 mm 2 mps 746 mmHg 75%
22:00 +2°C° 0 mm 3 mps 746 mmHg 79%
23:00 +1°C° 0 mm 3 mps 746 mmHg 83%
Show more